Overview Statistics Trail Chart Weather Telemetry Raw packets
 

This is the latest recevied weather packets stored in our database for station/object K5SVV. If no packets are shown the sender has not sent any weather packets the latest 10 day(s).

<< 66 67 68 69 70 71 72 >>
Time Temp. Humidity Pressure Rain* Wind** Luminosity Snow
1788213371 36.67° C 38% 1013.2 hPa 0 mm - 84 W/m² -
1788213067 37.22° C 37% 1013.4 hPa 0 mm - 108 W/m² -
1788212764 37.78° C 35% 1013.6 hPa 0 mm - 173 W/m² -
1788212460 38.33° C 36% 1013.5 hPa 0 mm - 514 W/m² -
1788212156 37.78° C 35% 1013.4 hPa 0 mm - 570 W/m² -
1788211851 37.22° C 37% 1013.8 hPa 0 mm - 544 W/m² -
1788211542 37.78° C 36% 1013.7 hPa 0 mm - 215 W/m² -
1788211237 37.78° C 37% 1013.8 hPa 0 mm - 599 W/m² -
1788210931 36.67° C 38% 1013.7 hPa 0 mm - 620 W/m² -
1788210631 38.33° C 37% 1013.8 hPa 0 mm - 206 W/m² -
1788210326 38.33° C 36% 1013.9 hPa 0 mm - 657 W/m² -
1788210022 38.33° C 35% 1013.8 hPa 0 mm - 644 W/m² -
1788209717 38.33° C 35% 1014 hPa 0 mm - 656 W/m² -
1788209412 37.78° C 35% 1014.1 hPa 0 mm - 675 W/m² -
1788209108 37.78° C 36% 1014.4 hPa 0 mm - 678 W/m² -
1788208806 37.78° C 36% 1014.2 hPa 0 mm - 685 W/m² -
1788208523 38.33° C 35% 1014.5 hPa 0 mm - 683 W/m² -
1788208204 37.78° C 35% 1014.6 hPa 0 mm - 666 W/m² -
1788207899 37.78° C 35% 1014.7 hPa 0 mm - 674 W/m² -
1788207598 37.78° C 35% 1014.7 hPa 0 mm - 679 W/m² -
1788207297 37.78° C 36% 1014.7 hPa 0 mm - 708 W/m² -
1788206992 37.78° C 37% 1014.7 hPa 0 mm - 698 W/m² -
1788206688 37.78° C 37% 1014.8 hPa 0 mm - 712 W/m² -
1788206382 37.78° C 35% 1014.8 hPa 0 mm - 748 W/m² -
1788206078 37.22° C 35% 1014.8 hPa 0 mm - 742 W/m² -

* Rain latest hour (hover to see other rain measurements)
** Current wind speed in m/s (hover to see current wind gust speed)